Volver al catálogo

ARIANE 44P+3 R/B

ActivoHEO
NORAD 23716·ROCKET BODY·🇫🇷 France

Lanzado Nov 17, 1995 desde Guiana Space Centre

Loading…

Próximos Pases (próximas 24 horas)

TLE

ActualizadoSource: Space-Track

Época: Sep 14, 2026, 04:24 UTC

1 23716U 95062B   26257.18383394 -.00000126  00000-0  18124-2 0  9990
2 23716   6.5438  14.1842 8374013  50.5039 356.8644  0.95005490107056

Sigue ARIANE 44P+3 R/B en tiempo real con AllMySat

Download on the App Store